This demonstration page uses our WeatherBlox Daily Observations layout. Learn more.

Left ArrowRight Arrow

Hourly Observations for March 9, 2020

Temp ( °F °C ) Dew Point ( °F °C ) Humidity (%) Winds ( mph kmh ) Pressure ( in mb ) Visibility ( mi km ) Precip ( " mm )
12:56 am 00:56 Cloudy with Light Rain 41 5 38 3.3 89 89 NNE 17 28 29.93 1014 10 16 0.00 0.00
1:46 am 01:46 Cloudy with Light Rain 39 4 37 3 93 93 N 17 28 29.99 1015 10 16 0.00 0.00
1:53 am 01:53 Cloudy with Light Rain 39 4 37 3 93 93 N 18 30 29.99 1015 10 16 0.00 0.00
1:56 am 01:56 Cloudy with Light Rain 39 3.9 37 2.8 93 93 N 20 31 29.93 1013 10 16 0.00 0.00
2:56 am 02:56 Cloudy 37 2.8 35 1.7 93 93 NNE 21 33 29.93 1014 10 16 0.00 0.00
3:56 am 03:56 Cloudy with Light Rain 35 1.7 33 0.6 93 93 NNE 21 33 29.92 1013 10 16 0.00 0.00
4:56 am 04:56 Windy with Snow Likely 34 1.1 33 0.6 97 97 NNE 20 31 29.92 1013 3 5 0.05 1.27
5:56 am 05:56 Windy with Snow Likely 33 0.6 31 -0.6 92 92 N 20 31 29.95 1014 3 5 0.03 0.76
6:56 am 06:56 Cloudy with Light Wintry Mix 32 0 31 -0.6 96 96 N 18 30 29.97 1015 9 14 0.00 0.00
7:56 am 07:56 Cloudy with Light Wintry Mix 32 0 31 -0.6 96 96 N 22 35 29.99 1016 10 16 0.00 0.00
8:56 am 08:56 Cloudy with Light Snow 32 0 31 -0.6 96 96 NNW 10 17 30.06 1018 7 11 0.02 0.51
9:13 am 09:13 Windy with Snow Likely 32 0 30 -1 93 93 NNE 21 33 30.09 1019 4 6 0.02 0.51
9:22 am 09:22 Cloudy with Light Snow 32 0 30 -1 93 93 NNE 17 28 30.10 1019 3 4 0.03 0.76
9:26 am 09:26 Cloudy with Light Snow 32 0 30 -1 93 93 NNE 14 22 30.10 1019 3 5 0.04 1.02
9:42 am 09:42 Cloudy with Light Snow 32 0 30 -1 93 93 NNE 17 28 30.10 1019 4 6 0.07 1.78
9:56 am 09:56 Windy with Snow Likely 32 0 31 -0.6 96 96 NNE 23 37 30.03 1017 4 6 0.13 3.30
10:51 am 10:51 Cloudy with Light Snow 32 0 30 -1 93 93 NNW 16 26 30.16 1021 2 3 0.00 0.00
10:56 am 10:56 Cloudy with Light Snow 32 0 31 -0.6 96 96 NNW 14 22 30.09 1019 4 6 0.03 0.76
11:10 am 11:10 Cloudy with Light Snow 32 0 30 -1 93 93 N 14 22 30.15 1021 3 5 0.00 0.00
11:22 am 11:22 Cloudy with Light Snow 32 0 30 -1 93 93 N 14 22 30.15 1021 3 5 0.01 0.25
11:56 am 11:56 Cloudy with Light Wintry Mix 32 0 31 -0.6 96 96 N 17 28 30.09 1019 9 14 0.02 0.51
12:26 pm 12:26 Cloudy with Light Wintry Mix 32 0 30 -1 93 93 N 18 30 30.12 1020 10 16 0.00 0.00
12:48 pm 12:48 Cloudy 32 0 30 -1 93 93 NNW 16 26 30.14 1021 10 16 0.00 0.00
12:56 pm 12:56 Cloudy 32 0 32 0 100 100 N 16 26 30.08 1019 10 16 0.00 0.00
1:56 pm 13:56 Cloudy 33 0.6 32 0 96 96 NNW 17 28 30.12 1020 10 16 0.00 0.00
2:11 pm 14:11 Cloudy 34 1 34 1 100 100 NNW 20 31 30.15 1021 10 16 0.00 0.00
2:56 pm 14:56 Cloudy 36 2.2 34 1.1 93 93 NNW 17 28 30.11 1020 10 16 0.00 0.00
3:56 pm 15:56 Cloudy 38 3.3 34 1.1 86 86 NNW 16 26 30.12 1020 10 16 0.00 0.00
4:56 pm 16:56 Cloudy 40 4.4 35 1.7 83 83 NNW 12 19 30.12 1020 10 16 0.00 0.00
5:56 pm 17:56 Cloudy 39 3.9 34 1.1 82 82 NNW 14 22 30.14 1021 10 16 0.00 0.00
6:56 pm 18:56 Cloudy 38 3.3 34 1.1 86 86 N 12 19 30.16 1021 10 16 0.00 0.00
7:54 pm 19:54 Cloudy 36 2 34 1 93 93 N 10 17 30.21 1023 10 16 0.00 0.00
7:56 pm 19:56 Cloudy 36 2.2 33 0.6 89 89 N 9 15 30.19 1022 10 16 0.00 0.00
8:56 pm 20:56 Cloudy 35 1.7 33 0.6 93 93 NNW 8 13 30.22 1023 10 16 0.00 0.00
9:56 pm 21:56 Cloudy 34 1.1 32 0 92 92 N 7 11 30.24 1024 10 16 0.00 0.00
10:09 pm 22:09 Cloudy 34 1 32 0 93 93 NNW 7 11 30.28 1025 10 16 0.00 0.00
10:56 pm 22:56 Cloudy 33 0.6 31 -0.6 92 92 NNE 3 6 30.26 1025 10 16 0.00 0.00
11:35 pm 23:35 Cloudy 32 0 30 -1 93 93 NE 3 6 30.30 1026 8 13 0.00 0.00
11:56 pm 23:56 Cloudy 32 0 31 -0.6 96 96 NNE 5 7 30.27 1025 7 11 0.00 0.00

Powered by AerisWeather